sat.trackr.live / text

‹ back to catalog

STARLINK-32009

NORAD 60104 · 2024-117P

PAYLOAD ACTIVE UNKNOWN

§ Identity

Operator
Country
US
Launch date
2024-06-23
Launch site
AFETR
Launch vehicle
Mass (kg)
RCS (m²)

Purposes: comms

External: N2YO · Heavens-Above · Gunter

§ Orbital elements

Epoch: 2026-05-25T02:48:14.913792Z

Period
94.11 min
Inclination
53.1608°
Eccentricity
0.0001349
Mean motion
15.30200077 rev/d
Perigee alt
474.3 km
Apogee alt
476.1 km
Semi-major
6,853.4 km
B*
3.5667e-6
RAAN
42.3966°
Arg perigee
92.0121°
Mean anomaly
268.1034°
Rev number
10,858

§ Raw data

STARLINK-320091 60104U 24117P   26145.11683928 -.00000254  00000+0  35667-5 0  99952 60104  53.1608  42.3966 0001349  92.0121 268.1034 15.30200077108589

JSON: /api/v1/satellites/60104 · /tle

For live sub-satellite position, see the globe view (requires WebGL).

§ Visibility from observer

Set your observer location to see the next 7 days of passes ≥ 10°. The values pass through the URL so the page stays shareable.

No JS? Fill the form by hand. The geolocation button needs JavaScript.